TimePDT,TemperatureF,Dew PointF,Humidity,Sea Level PressureIn,VisibilityMPH,Wind Direction,Wind SpeedMPH,Gust SpeedMPH,PrecipitationIn,Events,Conditions,WindDirDegrees,DateUTC
12:53 AM,52.0,15.1,23,29.86,-9999.0,SE,4.6,-,N/A,,Unknown,140,2012-10-10 07:53:00
1:53 AM,48.0,17.1,29,29.88,-9999.0,SW,3.5,-,N/A,,Unknown,220,2012-10-10 08:53:00
2:53 AM,44.1,16.0,32,29.89,-9999.0,NNW,5.8,-,N/A,,Unknown,340,2012-10-10 09:53:00
3:53 AM,45.0,17.1,33,29.88,-9999.0,Calm,Calm,-,N/A,,Unknown,0,2012-10-10 10:53:00
4:53 AM,44.1,21.0,40,29.90,-9999.0,SW,3.5,-,N/A,,Unknown,230,2012-10-10 11:53:00
5:53 AM,45.0,19.9,37,29.91,-9999.0,Calm,Calm,-,N/A,,Unknown,0,2012-10-10 12:53:00
6:53 AM,39.9,19.9,45,29.96,-9999.0,South,6.9,-,N/A,,Unknown,180,2012-10-10 13:53:00
7:53 AM,39.0,19.9,46,29.99,-9999.0,WSW,4.6,-,N/A,,Unknown,240,2012-10-10 14:53:00
8:53 AM,57.9,18.0,21,29.93,-9999.0,Calm,Calm,-,N/A,,Unknown,0,2012-10-10 15:53:00
9:53 AM,63.0,21.0,20,29.91,-9999.0,Calm,Calm,-,N/A,,Unknown,0,2012-10-10 16:53:00
10:53 AM,64.0,24.1,22,29.91,-9999.0,South,8.1,-,N/A,,Unknown,170,2012-10-10 17:53:00
11:53 AM,69.1,19.9,15,29.87,-9999.0,South,15.0,-,N/A,,Unknown,170,2012-10-10 18:53:00
12:53 PM,71.1,21.9,16,29.84,-9999.0,SSE,20.7,26.5,N/A,,Unknown,150,2012-10-10 19:53:00
1:53 PM,71.1,24.1,17,29.82,-9999.0,SSW,11.5,-,N/A,,Unknown,200,2012-10-10 20:53:00
2:53 PM,70.0,26.1,19,29.82,-9999.0,SSW,12.7,20.7,N/A,,Unknown,200,2012-10-10 21:53:00
3:53 PM,69.1,26.1,20,29.81,-9999.0,SSE,9.2,-,N/A,,Unknown,160,2012-10-10 22:53:00
4:53 PM,64.0,37.9,38,29.84,-9999.0,South,31.1,38.0,N/A,,Unknown,170,2012-10-10 23:53:00
5:53 PM,62.1,37.0,39,29.86,-9999.0,SSE,17.3,-,N/A,,Unknown,160,2012-10-11 00:53:00
6:53 PM,60.1,39.0,46,29.90,-9999.0,SSE,17.3,-,N/A,,Unknown,160,2012-10-11 01:53:00
7:53 PM,59.0,37.9,46,29.92,-9999.0,SSE,8.1,-,N/A,,Unknown,150,2012-10-11 02:53:00
8:53 PM,55.9,37.0,49,29.87,-9999.0,SSW,6.9,-,N/A,,Unknown,210,2012-10-11 03:53:00
9:53 PM,55.9,37.9,51,29.85,-9999.0,SSE,8.1,-,N/A,,Unknown,160,2012-10-11 04:53:00
10:53 PM,53.1,37.0,55,29.86,-9999.0,Variable,3.5,-,N/A,,Unknown,0,2012-10-11 05:53:00
11:53 PM,48.0,35.1,61,29.85,-9999.0,South,5.8,-,N/A,,Unknown,190,2012-10-11 06:53:00